H1 CPF 2 NER 2024 2 22 9 053 01 glonass106 H2 0705201 9106 32275 2024 2 22 0 0 0 2024 2 25 23 45 0 900 1 1 0 0 0 1 H9 10 0 60362 0.00000 0 14673090.464 -5811678.289 20042718.245 10 0 60362 900.00000 0 17017299.084 -5487882.176 18195795.039 10 0 60362 1800.00000 0 19132632.757 -5374098.708 15995569.278 10 0 60362 2700.00000 0 20961555.245 -5438179.678 13484747.737 10 0 60362 3600.00000 0 22455721.417 -5638324.521 10712071.435 10 0 60362 4500.00000 0 23577850.978 -5925044.389 7731371.418 10 0 60362 5400.00000 0 24303155.259 -6243459.783 4600524.764 10 0 60362 6300.00000 0 24620257.403 -6535834.291 1380330.887 10 0 60362 7200.00000 0 24531567.459 -6744236.898 -1866669.927 10 0 60362 8100.00000 0 24053097.117 -6813219.836 -5077412.519 10 0 60362 9000.00000 0 23213721.972 -6692398.079 -8189533.493 10 0 60362 9900.00000 0 22053922.701 -6338820.789 -11142584.197 10 0 60362 10800.00000 0 20624058.360 -5719033.711 -13879206.126 10 0 60362 11700.00000 0 18982244.577 -4810744.579 -16346245.689 10 0 60362 12600.00000 0 17191926.003 -3604020.328 -18495786.539 10 0 60362 13500.00000 0 15319245.008 -2101964.704 -20286079.474 10 0 60362 14400.00000 0 13430316.966 -320846.629 -21682352.069 10 0 60362 15300.00000 0 11588526.126 1710327.195 -22657482.621 10 0 60362 16200.00000 0 9851954.955 3950778.817 -23192525.692 10 0 60362 17100.00000 0 8271054.010 6349425.522 -23277079.414 10 0 60362 18000.00000 0 6886649.238 8846786.250 -22909487.644 10 0 60362 18900.00000 0 5728369.318 11377249.596 -22096873.172 10 0 60362 19800.00000 0 4813558.084 13871609.928 -20855001.254 10 0 60362 20700.00000 0 4146716.808 16259766.804 -19207975.876 10 0 60362 21600.00000 0 3719498.944 18473475.917 -17187774.261 10 0 60362 22500.00000 0 3511256.792 20449037.421 -14833628.196 10 0 60362 23400.00000 0 3490116.428 22129809.747 -12191263.746 10 0 60362 24300.00000 0 3614534.939 23468444.139 -9312013.772 10 0 60362 25200.00000 0 3835273.673 24428746.540 -6251820.233 10 0 60362 26100.00000 0 4097703.509 24987088.926 -3070145.702 10 0 60362 27000.00000 0 4344344.035 25133311.006 171184.590 10 0 60362 27900.00000 0 4517528.523 24871074.602 3409187.310 10 0 60362 28800.00000 0 4562081.188 24217656.097 6580948.237 10 0 60362 29700.00000 0 4427892.669 23203185.997 9624847.722 10 0 60362 30600.00000 0 4072284.042 21869368.030 12481760.103 10 0 60362 31500.00000 0 3462058.645 20267732.065 15096203.313 10 0 60362 32400.00000 0 2575154.359 18457494.637 17417416.169 10 0 60362 33300.00000 0 1401825.872 16503117.225 19400342.463 10 0 60362 34200.00000 0 -54693.597 14471664.820 21006502.904 10 0 60362 35100.00000 0 -1778079.759 12430075.407 22204738.485 10 0 60362 36000.00000 0 -3739359.526 10442454.309 22971811.362 10 0 60362 36900.00000 0 -5897890.507 8567506.041 23292852.181 10 0 60362 37800.00000 0 -8202837.803 6856210.228 23161645.704 10 0 60362 38700.00000 0 -10595087.541 5349837.751 22580749.608 10 0 60362 39600.00000 0 -13009518.355 4078388.983 21561444.349 10 0 60362 40500.00000 0 -15377537.155 3059518.309 20123515.076 10 0 60362 41400.00000 0 -17629774.490 2297988.820 18294869.563 10 0 60362 42300.00000 0 -19698827.864 1785679.033 16110999.224 10 0 60362 43200.00000 0 -21521939.269 1502140.417 13614293.161 10 0 60362 44100.00000 0 -23043495.608 1415681.513 10853218.024 10 0 60362 45000.00000 0 -24217247.770 1484932.310 7881379.201 10 0 60362 45900.00000 0 -25008155.744 1660822.354 4756481.252 10 0 60362 46800.00000 0 -25393782.454 1888888.537 1539207.611 10 0 60362 47700.00000 0 -25365177.930 2111814.546 -1707958.560 10 0 60362 48600.00000 0 -24927216.562 2272094.009 -4921949.269 10 0 60362 49500.00000 0 -24098373.314 2314704.077 -8040338.397 10 0 60362 50400.00000 0 -22909948.472 2189675.757 -11002555.912 10 0 60362 51300.00000 0 -21404773.425 1854451.560 -13751065.672 10 0 60362 52200.00000 0 -19635451.963 1275930.123 -16232483.665 10 0 60362 53100.00000 0 -17662210.966 432110.673 -18398614.798 10 0 60362 54000.00000 0 -15550450.571 -686732.906 -20207388.193 10 0 60362 54900.00000 0 -13368096.337 -2077398.775 -21623673.019 10 0 60362 55800.00000 0 -11182864.020 -3723653.133 -22619959.336 10 0 60362 56700.00000 0 -9059550.894 -5596680.974 -23176891.127 10 0 60362 57600.00000 0 -7057466.250 -7656073.932 -23283641.517 10 0 60362 58500.00000 0 -5228107.726 -9851315.082 -22938123.136 10 0 60362 59400.00000 0 -3613179.693 -12123699.813 -22147029.701 10 0 60362 60300.00000 0 -2243035.600 -14408613.690 -20925707.872 10 0 60362 61200.00000 0 -1135608.474 -16638073.142 -19297861.693 10 0 60362 62100.00000 0 -295873.413 -18743423.712 -17295094.927 10 0 60362 63000.00000 0 284136.375 -20658083.779 -14956299.726 10 0 60362 63900.00000 0 624761.525 -22320219.424 -12326903.055 10 0 60362 64800.00000 0 757621.247 -23675238.742 -9457985.122 10 0 60362 65700.00000 0 724037.795 -24678001.177 -6405286.701 10 0 60362 66600.00000 0 573047.995 -25294649.163 -3228124.626 10 0 60362 67500.00000 0 359086.606 -25503985.098 11763.301 10 0 60362 68400.00000 0 139440.323 -25298335.731 3251421.176 10 0 60362 69300.00000 0 -28419.071 -24683867.591 6427901.729 10 0 60362 70200.00000 0 -89508.739 -23680340.268 9479492.524 10 0 60362 71100.00000 0 6097.920 -22320308.055 12346917.295 10 0 60362 72000.00000 0 300920.017 -20647803.719 14974488.610 10 0 60362 72900.00000 0 828034.008 -18716559.895 17311189.272 10 0 60362 73800.00000 0 1609441.176 -16587842.859 19311661.472 10 0 60362 74700.00000 0 2654907.213 -14327989.577 20937084.666 10 0 60362 75600.00000 0 3961323.408 -12005750.953 22155925.595 10 0 60362 76500.00000 0 5512617.015 -9689552.051 22944546.429 10 0 60362 77400.00000 0 7280215.359 -7444783.207 23287659.817 10 0 60362 78300.00000 0 9224045.126 -5331234.292 23178622.564 10 0 60362 79200.00000 0 11294026.021 -3400778.219 22619562.653 10 0 60362 80100.00000 0 13431997.328 -1695399.262 21621337.372 10 0 60362 81000.00000 0 15573997.949 -245647.268 20203323.344 10 0 60362 81900.00000 0 17652805.628 930418.879 18393042.329 10 0 60362 82800.00000 0 19600630.138 1827755.525 16225629.687 10 0 60362 83700.00000 0 21351848.574 2454305.424 13743155.308 10 0 60362 84600.00000 0 22845668.805 2830418.023 10993809.670 10 0 60362 85500.00000 0 24028609.967 2987744.166 8030970.404 10 0 60363 0.00000 0 24856696.092 2967652.535 4912167.469 10 0 60363 900.00000 0 25297271.199 2819235.302 1697965.159 10 0 60363 1800.00000 0 25330358.467 2596987.898 -1549213.022 10 0 60363 2700.00000 0 24949507.597 2358261.608 -4766299.167 10 0 60363 3600.00000 0 24162093.428 2160597.296 -7890807.361 10 0 60363 4500.00000 0 22989053.512 2059053.743 -10862049.042 10 0 60363 5400.00000 0 21464075.432 2103644.176 -13622313.109 10 0 60363 6300.00000 0 19632267.825 2336990.002 -16117987.555 10 0 60363 7200.00000 0 17548370.617 2792291.558 -18300600.711 10 0 60363 8100.00000 0 15274579.355 3491702.179 -20127761.915 10 0 60363 9000.00000 0 12878074.420 4445174.891 -21563983.568 10 0 60363 9900.00000 0 10428358.114 5649831.093 -22581368.876 10 0 60363 10800.00000 0 7994510.356 7089878.668 -23160152.354 10 0 60363 11700.00000 0 5642476.925 8737083.996 -23289082.938 10 0 60363 12600.00000 0 3432502.637 10551779.094 -22965642.535 10 0 60363 13500.00000 0 1416815.657 12484362.831 -22196095.896 10 0 60363 14400.00000 0 -362341.395 14477234.460 -20995370.800 10 0 60363 15300.00000 0 -1874252.348 16467079.529 -19386770.615 10 0 60363 16200.00000 0 -3100777.028 18387413.406 -17401524.477 10 0 60363 17100.00000 0 -4036866.586 20171276.622 -15078183.307 10 0 60363 18000.00000 0 -4690523.995 21753969.597 -12461872.973 10 0 60363 18900.00000 0 -5082212.398 23075712.363 -9603418.683 10 0 60363 19800.00000 0 -5243737.174 24084117.750 -6558357.370 10 0 60363 20700.00000 0 -5216649.740 24736374.030 -3385857.232 10 0 60363 21600.00000 0 -5050241.438 25001045.077 -147565.577 10 0 60363 22500.00000 0 -4799213.138 24859412.056 3093592.270 10 0 60363 23400.00000 0 -4521120.007 24306299.942 6274639.156 10 0 60363 24300.00000 0 -4273700.404 23350353.876 9333772.959 10 0 60363 25200.00000 0 -4112202.693 22013753.607 12211569.777 10 0 60363 26100.00000 0 -4086823.767 20331377.960 14852139.603 10 0 60363 27000.00000 0 -4240368.192 18349454.385 17204211.788 10 0 60363 27900.00000 0 -4606227.368 16123750.203 19222129.249 10 0 60363 28800.00000 0 -5206764.468 13717381.237 20866732.243 10 0 60363 29700.00000 0 -6052173.648 11198329.279 22106115.028 10 0 60363 30600.00000 0 -7139862.029 8636771.737 22916241.236 10 0 60363 31500.00000 0 -8454380.967 6102334.340 23281406.609 10 0 60363 32400.00000 0 -9967910.143 3661380.698 23194540.685 10 0 60363 33300.00000 0 -11641274.931 1374450.660 22657341.990 10 0 60363 34200.00000 0 -13425455.266 -706046.830 21680244.370 10 0 60363 35100.00000 0 -15263523.734 -2537791.467 20282215.116 10 0 60363 36000.00000 0 -17092932.675 -4090079.518 18490388.627 10 0 60363 36900.00000 0 -18848055.379 -5344859.386 16339542.323 10 0 60363 37800.00000 0 -20462875.634 -6297232.708 13871424.502 10 0 60363 38700.00000 0 -21873713.522 -6955401.189 11133946.673 10 0 60363 39600.00000 0 -23021873.474 -7340062.396 8180255.594 10 0 60363 40500.00000 0 -23856103.509 -7483280.855 5067702.701 10 0 60363 41400.00000 0 -24334762.434 -7426882.906 1856730.795 10 0 60363 42300.00000 0 -24427603.504 -7220443.707 -1390300.344 10 0 60363 43200.00000 0 -24117099.200 -6918952.161 -4610326.383 10 0 60363 44100.00000 0 -23399251.083 -6580253.140 -7740805.018 10 0 60363 45000.00000 0 -22283850.165 -6262375.777 -10720932.436 10 0 60363 45900.00000 0 -20794176.466 -6020861.414 -13492825.658 10 0 60363 46800.00000 0 -18966149.913 -5906204.700 -16002647.531 10 0 60363 47700.00000 0 -16846967.811 -5961516.524 -18201652.326 10 0 60363 48600.00000 0 -14493285.578 -6220507.945 -20047131.714 10 0 60363 49500.00000 0 -11969016.437 -6705880.679 -21503242.934 10 0 60363 50400.00000 0 -9342841.529 -7428192.515 -22541703.377 10 0 60363 51300.00000 0 -6685533.793 -8385246.016 -23142338.524 10 0 60363 52200.00000 0 -4067206.501 -9562026.923 -23293472.950 10 0 60363 53100.00000 0 -1554600.361 -10931195.645 -22992157.079 10 0 60363 54000.00000 0 791478.721 -12454112.082 -22244225.436 10 0 60363 54900.00000 0 2918465.400 -14082351.731 -21064185.198 10 0 60363 55800.00000 0 4783989.053 -15759650.399 -19474936.975 10 0 60363 56700.00000 0 6357395.832 -17424196.787 -17507332.880 10 0 60363 57600.00000 0 7620776.066 -19011177.522 -15199579.970 10 0 60363 58500.00000 0 8569455.040 -20455468.262 -12596500.189 10 0 60363 59400.00000 0 9211927.604 -21694358.205 -9748660.787 10 0 60363 60300.00000 0 9569240.390 -22670193.530 -6711391.821 10 0 60363 61200.00000 0 9673848.620 -23332828.445 -3543709.801 10 0 60363 62100.00000 0 9567996.703 -23641780.407 -307168.539 10 0 60363 63000.00000 0 9301691.934 -23567998.352 2935340.131 10 0 60363 63900.00000 0 8930357.878 -23095169.021 6120811.920 10 0 60363 64800.00000 0 8512267.520 -22220505.959 9187357.565 10 0 60363 65700.00000 0 8105865.593 -20954987.555 12075407.833 10 0 60363 66600.00000 0 7767094.004 -19323033.816 14728872.160 10 0 60363 67500.00000 0 7546834.022 -17361635.161 17096228.165 10 0 60363 68400.00000 0 7488573.731 -15118969.521 19131520.867 10 0 60363 69300.00000 0 7626399.522 -12652565.418 20795252.360 10 0 60363 70200.00000 0 7983396.570 -10027087.485 22055145.089 10 0 60363 71100.00000 0 8570525.874 -7311836.459 22886764.466 10 0 60363 72000.00000 0 9386025.346 -4578067.302 23273989.299 10 0 60363 72900.00000 0 10415360.429 -1896236.421 23209321.506 10 0 60363 73800.00000 0 11631726.765 666708.364 22694029.517 10 0 60363 74700.00000 0 12997084.342 3049883.340 21738122.840 10 0 60363 75600.00000 0 14463680.403 5200764.719 20360158.323 10 0 60363 76500.00000 0 15975997.989 7077130.350 18586881.684 10 0 60363 77400.00000 0 17473049.064 8648567.600 16452710.894 10 0 60363 78300.00000 0 18890916.700 9897485.647 13999070.980 10 0 60363 79200.00000 0 20165440.104 10819591.016 11273592.615 10 0 60363 80100.00000 0 21234929.995 11423807.486 8329189.611 10 0 60363 81000.00000 0 22042800.438 11731644.796 5223032.926 10 0 60363 81900.00000 0 22540006.281 11776043.570 2015440.887 10 0 60363 82800.00000 0 22687183.272 11599745.934 -1231292.725 10 0 60363 83700.00000 0 22456400.479 11253261.395 -4454109.757 10 0 60363 84600.00000 0 21832450.498 10792514.521 -7590414.097 10 0 60363 85500.00000 0 20813622.625 10276274.525 -10579289.176 10 0 60364 0.00000 0 19411926.129 9763476.017 -13362682.240 10 0 60364 900.00000 0 17652752.570 9310544.322 -15886533.619 10 0 60364 1800.00000 0 15573992.736 8968839.522 -18101825.174 10 0 60364 2700.00000 0 13224642.067 8782326.517 -19965532.586 10 0 60364 3600.00000 0 10662954.060 8785570.432 -21441459.407 10 0 60364 4500.00000 0 7954217.480 9002141.854 -22500938.508 10 0 60364 5400.00000 0 5168249.515 9443499.410 -23123387.434 10 0 60364 6300.00000 0 2376708.548 10108397.044 -23296707.279 10 0 60364 7200.00000 0 -349662.341 10982841.386 -23017517.599 10 0 60364 8100.00000 0 -2943747.340 12040601.522 -22291222.972 10 0 60364 9000.00000 0 -5344613.402 13244250.398 -21131909.861 10 0 60364 9900.00000 0 -7499803.816 14546694.786 -19562075.573 10 0 60364 10800.00000 0 -9367275.273 15893130.210 -17612194.215 10 0 60364 11700.00000 0 -10916898.596 17223339.325 -15320127.558 10 0 60364 12600.00000 0 -12131461.365 18474237.541 -12730391.822 10 0 60364 13500.00000 0 -13007131.456 19582559.151 -9893294.170 10 0 60364 14400.00000 0 -13553363.010 20487570.916 -6863955.388 10 0 60364 15300.00000 0 -13792249.761 21133698.697 -3701237.701 10 0 60364 16200.00000 0 -13757353.902 21472956.087 -466598.685 10 0 60364 17100.00000 0 -13492060.852 21467072.178 2777106.143 10 0 60364 18000.00000 0 -13047530.327 21089228.192 5966848.235 10 0 60364 18900.00000 0 -12480331.165 20325329.158 9040654.061 10 0 60364 19800.00000 0 -11849860.734 19174756.476 11938811.894 10 0 60364 20700.00000 0 -11215658.690 17650569.135 14605033.364 10 0 60364 21600.00000 0 -10634729.195 15779144.629 16987546.983 10 0 60364 22500.00000 0 -10158985.070 13599274.137 19040102.334 10 0 60364 23400.00000 0 -9832921.967 11160749.441 20722865.599 10 0 60364 24300.00000 0 -9691620.739 8522500.182 22003189.413 10 0 60364 25200.00000 0 -9759162.104 5750358.626 22856242.672 10 0 60364 26100.00000 0 -10047520.278 2914544.528 23265488.625 10 0 60364 27000.00000 0 -10555982.058 86974.005 23223002.563 10 0 60364 27900.00000 0 -11271115.801 -2661496.527 22729623.381 10 0 60364 28800.00000 0 -12167291.781 -5263777.713 21794936.344 10 0 60364 29700.00000 0 -13207732.328 -7659094.460 20437087.453 10 0 60364 30600.00000 0 -14346048.105 -9795268.127 18682432.823 10 0 60364 31500.00000 0 -15528196.425 -11630639.802 16565029.553 10 0 60364 32400.00000 0 -16694779.841 -13135555.630 14125977.489 10 0 60364 33300.00000 0 -17783588.787 -14293353.229 11412624.121 10 0 60364 34200.00000 0 -18732281.567 -15100808.937 8477647.627 10 0 60364 35100.00000 0 -19481089.069 -15568028.157 5378035.495 10 0 60364 36000.00000 0 -19975430.156 -15717784.272 2173978.375 10 0 60364 36900.00000 0 -20168327.279 -15584334.758 -1072299.274 10 0 60364 37800.00000 0 -20022519.977 -15211765.165 -4297748.886 10 0 60364 38700.00000 0 -19512186.550 -14651931.486 -7439724.001 10 0 60364 39600.00000 0 -18624200.758 -13962088.518 -10437198.703 10 0 60364 40500.00000 0 -17358869.794 -13202304.878 -13231954.270 10 0 60364 41400.00000 0 -15730121.693 -12432774.297 -15769710.698 10 0 60364 42300.00000 0 -13765133.513 -11711137.116 -18001180.887 10 0 60364 43200.00000 0 -11503414.968 -11089925.191 -19883027.123 10 0 60364 44100.00000 0 -8995385.076 -10614238.141 -21378701.420 10 0 60364 45000.00000 0 -6300500.461 -10319748.895 -22459153.731 10 0 60364 45900.00000 0 -3485012.547 -10231122.558 -23103394.687 10 0 60364 46800.00000 0 -619446.173 -10360915.110 -23298902.309 10 0 60364 47700.00000 0 2224096.281 -10708998.348 -23041865.099 10 0 60364 48600.00000 0 4974694.074 -11262535.394 -22337256.960 10 0 60364 49500.00000 0 7565316.755 -11996508.035 -21198742.426 10 0 60364 50400.00000 0 9935370.521 -12874774.087 -19648413.865 10 0 60364 51300.00000 0 12032977.156 -13851610.691 -17716365.343 10 0 60364 52200.00000 0 13816891.471 -14873679.039 -15440110.978 10 0 60364 53100.00000 0 15257978.020 -15882328.131 -12863858.565 10 0 60364 54000.00000 0 16340186.217 -16816140.756 -10037652.179 10 0 60364 54900.00000 0 17060983.830 -17613614.414 -7016400.087 10 0 60364 55800.00000 0 17431231.508 -18215863.949 -3858806.795 10 0 60364 56700.00000 0 17474504.504 -18569231.525 -626230.097 10 0 60364 57600.00000 0 17225891.037 -18627693.240 2618514.340 10 0 60364 58500.00000 0 16730318.878 -18354960.190 5812377.133 10 0 60364 59400.00000 0 16040481.657 -17726184.597 8893303.685 10 0 60364 60300.00000 0 15214453.263 -16729198.322 11801442.650 10 0 60364 61200.00000 0 14313091.853 -15365230.866 14480310.348 10 0 60364 62100.00000 0 13397343.607 -13649075.937 16877888.238 10 0 60364 63000.00000 0 12525560.431 -11608698.917 18947632.076 10 0 60364 63900.00000 0 11750944.932 -9284301.025 20649373.270 10 0 60364 64800.00000 0 11119230.279 -6726878.692 21950095.341 10 0 60364 65700.00000 0 10666692.508 -3996337.596 22824570.936 10 0 60364 66600.00000 0 10418578.530 -1159239.275 23255847.607 10 0 60364 67500.00000 0 10388015.637 1713726.677 23235573.505 10 0 60364 68400.00000 0 10575447.954 4550440.615 22764157.144 10 0 60364 69300.00000 0 10968623.277 7280109.823 21850758.404 10 0 60364 70200.00000 0 11543130.717 9835970.929 20513111.036 10 0 60364 71100.00000 0 12263466.575 12157826.448 18777179.928 10 0 60364 72000.00000 0 13084583.766 14194310.923 16676659.485 10 0 60364 72900.00000 0 13953859.854 15904793.302 14252322.374 10 0 60364 73800.00000 0 14813401.053 17260837.081 11551230.748 10 0 60364 74700.00000 0 15602585.399 18247158.179 8625824.821 10 0 60364 75600.00000 0 16260737.935 18862041.257 5532906.153 10 0 60364 76500.00000 0 16729825.029 19117197.786 2332535.168 10 0 60364 77400.00000 0 16957053.879 19037072.628 -913135.625 10 0 60364 78300.00000 0 16897267.009 18657628.923 -4141069.876 10 0 60364 79200.00000 0 16515030.128 18024663.221 -7288573.309 10 0 60364 80100.00000 0 15786324.555 17191722.519 -10294513.067 10 0 60364 81000.00000 0 14699772.056 16217711.596 -13100506.433 10 0 60364 81900.00000 0 13257339.600 15164292.043 -15652055.521 10 0 60364 82800.00000 0 11474493.413 14093182.965 -17899605.736 10 0 60364 83700.00000 0 9379794.878 13063477.369 -19799507.449 10 0 60364 84600.00000 0 7013954.218 12129087.338 -21314862.420 10 0 60364 85500.00000 0 4428380.511 11336425.460 -22416238.785 10 0 60365 0.00000 0 1683287.807 10722419.933 -23082241.133 10 0 60365 900.00000 0 -1154566.212 10312946.245 -23299925.239 10 0 60365 1800.00000 0 -4014412.213 10121741.852 -23065048.928 10 0 60365 2700.00000 0 -6824172.336 10149848.167 -22382155.553 10 0 60365 3600.00000 0 -9513219.420 10385604.010 -21264487.473 10 0 60365 4500.00000 0 -12015079.879 10805190.351 -19733731.436 10 0 60365 5400.00000 0 -14269968.378 11373703.574 -17819600.377 10 0 60365 6300.00000 0 -16227049.519 12046712.140 -15559259.256 10 0 60365 7200.00000 0 -17846332.891 12772231.213 -12996605.607 10 0 60365 8100.00000 0 -19100123.012 13493032.030 -10181418.315 10 0 60365 9000.00000 0 -19973964.132 14149188.578 -7168390.831 10 0 60365 9900.00000 0 -20467040.936 14680753.797 -4016067.508 10 0 60365 10800.00000 0 -20592019.013 15030451.961 -785703.854 10 0 60365 11700.00000 0 -20374332.539 15146272.906 2459926.893 10 0 60365 12600.00000 0 -19850949.931 14983857.817 5657757.118 10 0 60365 13500.00000 0 -19068670.314 14508575.069 8745653.793 10 0 60365 14400.00000 0 -18082023.412 13697197.625 11663628.587 10 0 60365 15300.00000 0 -16950862.178 12539110.453 14355005.111 10 0 60365 16200.00000 0 -15737750.276 11036996.283 16767520.296 10 0 60365 17100.00000 0 -14505254.953 9206970.023 18854338.448 10 0 60365 18000.00000 0 -13313259.561 7078155.448 20574958.392 10 0 60365 18900.00000 0 -12216408.797 4691721.053 21895996.464 10 0 60365 19800.00000 0 -11261793.853 2099414.570 22791830.697 10 0 60365 20700.00000 0 -10486974.323 -638343.546 23245094.231 10 0 60365 21600.00000 0 -9918419.373 -3454729.112 23247009.000 10 0 60365 22500.00000 0 -9570432.957 -6279052.246 22797553.669 10 0 60365 23400.00000 0 -9444607.627 -9039459.829 21905462.864 10 0 60365 24300.00000 0 -9529829.288 -11665691.063 20588057.789 10 0 60365 25200.00000 0 -9802832.315 -14091772.565 18870911.396 10 0 60365 26100.00000 0 -10229281.408 -16258541.810 16787354.270 10 0 60365 27000.00000 0 -10765334.535 -18115894.692 14377830.372 10 0 60365 27900.00000 0 -11359621.104 -19624664.387 11689114.626 10 0 60365 28800.00000 0 -11955551.981 -20758053.741 8773407.097 10 0 60365 29700.00000 0 -12493863.821 -21502561.902 5687320.959 10 0 60365 30600.00000 0 -12915290.276 -21858367.161 2490783.735 10 0 60365 31500.00000 0 -13163246.896 -21839150.334 -754126.861 10 0 60365 32400.00000 0 -13186415.875 -21471366.694 -3984389.671 10 0 60365 33300.00000 0 -12941120.904 -20792997.739 -7137265.699 10 0 60365 34200.00000 0 -12393391.105 -19851835.828 -10151518.324 10 0 60365 35100.00000 0 -11520626.129 -18703374.473 -12968604.024 10 0 60365 36000.00000 0 -10312791.313 -17408393.561 -15533810.203 10 0 60365 36900.00000 0 -8773091.556 -16030341.527 -17797317.812 10 0 60365 37800.00000 0 -6918094.535 -14632624.844 -19715168.129 10 0 60365 38700.00000 0 -4777296.999 -13275918.880 -21250115.141 10 0 60365 39600.00000 0 -2392151.164 -12015613.047 -22372347.230 10 0 60365 40500.00000 0 185409.218 -10899497.255 -23060064.593 10 0 60365 41400.00000 0 2894882.816 -9965786.382 -23299901.569 10 0 60365 42300.00000 0 5669476.021 -9241565.202 -23087185.981 10 0 60365 43200.00000 0 8438645.986 -8741718.493 -22426030.654 10 0 60365 44100.00000 0 11130806.636 -8468390.741 -21329255.316 10 0 60365 45000.00000 0 13676085.955 -8410997.710 -19818140.203 10 0 60365 45900.00000 0 16009020.631 -8546789.022 -17922015.783 10 0 60365 46800.00000 0 18071076.540 -8841937.837 -15677696.090 10 0 60365 47700.00000 0 19812890.531 -9253111.526 -13128766.177 10 0 60365 48600.00000 0 21196140.402 -9729456.919 -10324737.064 10 0 60365 49500.00000 0 22194965.343 -10214916.148 -7320084.286 10 0 60365 50400.00000 0 22796877.726 -10650774.935 -4173188.591 10 0 60365 51300.00000 0 23003128.474 -10978335.199 -945199.464 10 0 60365 52200.00000 0 22828511.158 -11141598.432 2301156.148 10 0 60365 53100.00000 0 22300613.626 -11089845.662 5502796.257 10 0 60365 54000.00000 0 21458549.325 -10780004.170 8597513.099 10 0 60365 54900.00000 0 20351222.370 -10178700.098 11525184.778 10 0 60365 55800.00000 0 19035200.150 -9263909.418 14228945.221 10 0 60365 56700.00000 0 17572283.582 -8026136.776 16656289.410 10 0 60365 57600.00000 0 16026877.753 -6469071.678 18760092.294 10 0 60365 58500.00000 0 14463273.779 -4609693.610 20499521.720 10 0 60365 59400.00000 0 12942956.122 -2477820.754 21840827.971 10 0 60365 60300.00000 0 11522048.187 -115120.326 22757995.125 10 0 60365 61200.00000 0 10249002.915 2426379.051 23233242.134 10 0 60365 62100.00000 0 9162634.525 5086211.827 23257364.511 10 0 60365 63000.00000 0 8290573.094 7797757.700 22829910.460 10 0 60365 63900.00000 0 7648205.912 10490787.465 21959188.351 10 0 60365 64800.00000 0 7238149.084 13094167.635 20662105.495 10 0 60365 65700.00000 0 7050270.808 15538612.302 18963841.239 10 0 60365 66600.00000 0 7062264.641 17759368.553 16897360.394 10 0 60365 67500.00000 0 7240748.152 19698724.422 14502776.020 10 0 60365 68400.00000 0 7542840.301 21308235.507 11826573.411 10 0 60365 69300.00000 0 7918150.777 22550577.785 8920709.873 10 0 60365 70200.00000 0 8311097.123 23400949.747 5841607.446 10 0 60365 71100.00000 0 8663451.536 23847965.532 2649057.882 10 0 60365 72000.00000 0 8917009.390 23894001.905 -594938.827 10 0 60365 72900.00000 0 9016266.265 23554985.006 -3827379.620 10 0 60365 73800.00000 0 8910989.706 22859626.042 -6985483.580 10 0 60365 74700.00000 0 8558576.321 21848138.530 -10007912.940 10 0 60365 75600.00000 0 7926093.978 20570491.540 -12835965.750 10 0 60365 76500.00000 0 6991921.937 19084272.601 -15414716.806 10 0 60365 77400.00000 0 5746918.845 17452250.480 -17694084.411 10 0 60365 78300.00000 0 4195068.432 15739740.430 -19629802.284 10 0 60365 79200.00000 0 2353574.611 14011882.519 -21184277.921 10 0 60365 80100.00000 0 252400.889 12330947.184 -22327320.999 10 0 60365 81000.00000 0 -2066727.857 10753780.619 -23036728.103 10 0 60365 81900.00000 0 -4551820.723 9329496.598 -23298712.821 10 0 60365 82800.00000 0 -7142552.073 8097510.800 -23108173.173 10 0 60365 83700.00000 0 -9772549.412 7085999.297 -22468791.382 10 0 60365 84600.00000 0 -12371943.690 6310845.014 -21392964.077 10 0 60365 85500.00000 0 -14870076.773 5775115.653 -19901564.077 99